Weather past 2 weeks in Port-aux-Francais, Kerguelen Islands

Now
40 °F

Quite cool.


Feels Like: 32 °F
Forecast: 37 / 44 °F
Wind: 17 mph from Northwest

Location: Port-Aux-Francais Iles Kerguelen

Current Time: Dec 29, 2014 at 6:14:21 AM

Latest Report: Dec 29, 2014 at 6:00 AM


Visibility: N/A

Pressure: 29.88 "Hg

Humidity: 62%

Dew point: 28 °F

Location of Port-aux-FrancaisLocation

Historic Weather in Port-aux-Francais — Graph

°F

Port-aux-Francais temperature yesterday

Maximum temperature yesterday: 52 °F (at 12:00 PM)
Minimum temperature yesterday: 38 °F (at 3:00 AM)
Average temperature yesterday: 44 °F

Past Weeks' High & Low Weather Summary

 TemperatureHumidityPressure
High61 °F (Dec 26, 12:00 PM)91% (Dec 23, 11:00 AM)29.91 "Hg (Dec 23, 11:00 AM)
Low35 °F (Dec 17, 4:00 AM)32% (Dec 16, 2:00 PM)28.88 "Hg (Dec 23, 4:00 PM)
Average47 °F65%29.54 "Hg
* Reported Dec 14 5:00 AM — Dec 29 5:00 AM, Port-aux-Francais, Weather by CustomWeather, © 2014

Note: Actual official high and low records may vary slightly from our data, if they occured in-between our weather recording intervals... More about our weather records

Advertising

Port-aux-Francais weather history for previous 24 hours

 ConditionsComfort  
Time TempWeatherWind HumidityBarometerVisibility
5:00 AM
Dec 29
38 °FChilly.18 mph71%29.87 "HgN/A
4:00 AM39 °FChilly.24 mph64%29.85 "HgN/A
3:00 AM39 °FChilly.24 mph63%29.85 "HgN/A
2:00 AM40 °FChilly.28 mph62%29.85 "HgN/A
1:00 AM39 °FChilly.22 mph63%29.85 "HgN/A
12:00 AM39 °FChilly.22 mph62%29.85 "HgN/A
11:00 PM
Dec 28
39 °FChilly.21 mph65%29.83 "HgN/A
10:00 PM40 °FQuite cool.23 mph60%29.82 "HgN/A
9:00 PM41 °FQuite cool.22 mph58%29.81 "HgN/A
8:00 PM42 °FQuite cool.25 mph54%29.79 "HgN/A
7:00 PM44 °FQuite cool.31 mph51%29.78 "HgN/A
6:00 PM45 °FCool.32 mph53%29.76 "HgN/A
5:00 PM47 °FCool.35 mph53%29.74 "HgN/A
4:00 PM49 °FCool.31 mph52%29.74 "HgN/A
3:00 PM42 °FQuite cool.25 mph81%29.76 "HgN/A
2:00 PM47 °FCool.28 mph61%29.74 "HgN/A
1:00 PM52 °FCool.30 mph49%29.75 "HgN/A
12:00 PM52 °FCool.26 mph45%29.76 "HgN/A
11:00 AM49 °FCool.25 mph50%29.77 "HgN/A
10:00 AM48 °FCool.25 mph50%29.77 "HgN/A
9:00 AM48 °FCool.23 mph49%29.77 "HgN/A
8:00 AM45 °FCool.17 mph58%29.80 "HgN/A
7:00 AM45 °FQuite cool.16 mph59%29.80 "HgN/A
6:00 AM42 °FQuite cool.21 mph62%29.80 "HgN/A
Weather by CustomWeather, © 2014

See weather overviewHow to use our weather pages